Change the Weather History Date:

Sunday, January 5, 2014

  Actual Average (KBLU) Record (KBLU)
Temperature  
Mean Temperature 53 °F -  
Max Temperature 62 °F 43 °F 65 °F (1969)
Min Temperature 44 °F 32 °F 15 °F (1973)
Degree Days  
Heating Degree Days 12    
Growing Degree Days 3 (Base 50)    
Moisture  
Dew Point 9 °F    
Average Humidity 18    
Maximum Humidity 37    
Minimum Humidity 8    
Precipitation  
Precipitation 0.00 in - - ()
Sea Level Pressure  
Sea Level Pressure 30.20 in    
Wind  
Wind Speed 3 mph (NNE)    
Max Wind Speed 12 mph    
Max Gust Speed -    
Visibility 10 miles    
Events      
Averages and records for this station are not official NWS values.
T = Trace of Precipitation, MM = Missing Value Source: NWS Daily Summary

Daily Weather History Graph

Daily Weather History Graph

Search for Another Location

Airport or City:

Trip Planner

Search our weather history database for the weather conditions in past years. The results will help you decide how hot, cold, wet, or windy it might be!

Date:

Astronomy

Jan. 05, 2014 Rise Set
Actual Time 7:23 AM PST 4:55 PM PST
Civil Twilight 6:53 AM PST 5:25 PM PST
Nautical Twilight 6:20 AM PST 5:58 PM PST
Astronomical Twilight 5:48 AM PST 6:31 PM PST
Moon 10:10 AM PST (1/5) 10:26 PM PST (1/5)
Length of Visible Light 10h 31m
Length of Day
9h 31m
Waxing Crescent, 25% of the Moon is Illuminated
Jan 5
Waxing Crescent
Jan 7
First Quarter
Jan 15
Full
Jan 23
Last Quarter
Jan 30
New

Hourly Weather History & Observations

Time (PST) Temp. Windchill Dew Point Humidity Pressure Visibility Wind Dir Wind Speed Gust Speed Precip Events Conditions
12:15 AM 53.6 °F - -5.8 °F 9% 30.12 in 10.0 mi East 10.4 mph - N/A   Clear
12:35 AM 53.6 °F - -5.8 °F 9% 30.12 in 10.0 mi East 11.5 mph - N/A   Clear
12:55 AM 53.6 °F - -5.8 °F 9% 30.13 in 10.0 mi East 5.8 mph - N/A   Clear
1:15 AM 53.6 °F - -7.6 °F 8% 30.13 in 10.0 mi East 9.2 mph - N/A   Clear
1:35 AM 53.6 °F - -7.6 °F 8% 30.13 in 10.0 mi East 6.9 mph - N/A   Clear
1:55 AM 50.0 °F - -4.0 °F 11% 30.14 in 10.0 mi Calm Calm - N/A   Clear
2:15 AM 50.0 °F - -4.0 °F 11% 30.14 in 10.0 mi Calm Calm - N/A   Clear
2:35 AM 48.2 °F - -4.0 °F 11% 30.14 in 10.0 mi Calm Calm - N/A   Clear
2:55 AM 46.4 °F - -2.2 °F 13% 30.14 in 10.0 mi Calm Calm - N/A   Clear
3:15 AM 48.2 °F - -4.0 °F 11% 30.14 in 10.0 mi Calm Calm - N/A   Clear
3:35 AM 48.2 °F - -4.0 °F 11% 30.14 in 10.0 mi Calm Calm - N/A   Clear
3:55 AM 48.2 °F - -4.0 °F 11% 30.14 in 10.0 mi Calm Calm - N/A   Clear
4:15 AM 48.2 °F - -2.2 °F 12% 30.14 in 10.0 mi Calm Calm - N/A   Clear
4:35 AM 46.4 °F - -0.4 °F 14% 30.15 in 10.0 mi Calm Calm - N/A   Clear
4:55 AM 46.4 °F - -0.4 °F 14% 30.15 in 10.0 mi Calm Calm - N/A   Clear
5:15 AM 46.4 °F - -0.4 °F 14% 30.15 in 10.0 mi Calm Calm - N/A   Clear
5:35 AM 46.4 °F - -0.4 °F 14% 30.15 in 10.0 mi Calm Calm - N/A   Clear
5:55 AM 44.6 °F - -0.4 °F 15% 30.16 in 10.0 mi Calm Calm - N/A   Clear
6:15 AM 46.4 °F - -0.4 °F 14% 30.17 in 10.0 mi Calm Calm - N/A   Clear
6:35 AM 48.2 °F - -2.2 °F 12% 30.17 in 10.0 mi Calm Calm - N/A   Clear
6:55 AM 48.2 °F - -4.0 °F 11% 30.17 in 10.0 mi Calm Calm - N/A   Clear
7:15 AM 48.2 °F - -2.2 °F 12% 30.18 in 10.0 mi Calm Calm - N/A   Clear
7:35 AM 46.4 °F 44.3 °F -0.4 °F 14% 30.19 in 10.0 mi East 4.6 mph - N/A   Clear
7:55 AM 48.2 °F - -0.4 °F 13% 30.20 in 10.0 mi East 5.8 mph - N/A   Clear
8:15 AM 51.8 °F - -0.4 °F 12% 30.21 in 10.0 mi Calm Calm - N/A   Clear
8:35 AM 53.6 °F - 1.4 °F 12% 30.22 in 10.0 mi Calm Calm - N/A   Clear
8:55 AM 53.6 °F - 8.6 °F 16% 30.22 in 10.0 mi Calm Calm - N/A   Clear
9:15 AM 55.4 °F - 10.4 °F 17% 30.23 in 10.0 mi Calm Calm - N/A   Clear
9:35 AM 57.2 °F - 12.2 °F 17% 30.23 in 10.0 mi Calm Calm - N/A   Clear
9:55 AM 57.2 °F - 10.4 °F 16% 30.24 in 10.0 mi Calm Calm - N/A   Clear
10:15 AM 59.0 °F - 8.6 °F 14% 30.23 in 10.0 mi Calm Calm - N/A   Clear
10:35 AM 62.6 °F - 3.2 °F 9% 30.23 in 10.0 mi Calm Calm - N/A   Clear
10:55 AM 62.6 °F - 5.0 °F 10% 30.23 in 10.0 mi Calm Calm - N/A   Clear
11:15 AM 60.8 °F - 8.6 °F 13% 30.22 in 9.0 mi Calm Calm - N/A   Clear
11:35 AM 60.8 °F - 6.8 °F 12% 30.22 in 10.0 mi WNW 4.6 mph - N/A   Clear
11:55 AM 60.8 °F - 10.4 °F 14% 30.21 in 10.0 mi WNW 4.6 mph - N/A   Clear
12:15 PM 62.6 °F - 10.4 °F 13% 30.20 in 10.0 mi Calm Calm - N/A   Clear
12:35 PM 62.6 °F - 10.4 °F 13% 30.20 in 10.0 mi West 3.5 mph - N/A   Clear
12:55 PM 62.6 °F - 10.4 °F 13% 30.19 in 10.0 mi WNW 4.6 mph - N/A   Clear
1:15 PM 62.6 °F - 10.4 °F 13% 30.19 in 10.0 mi NW 5.8 mph - N/A   Clear
1:35 PM 62.6 °F - 14.0 °F 15% 30.18 in 10.0 mi West 5.8 mph - N/A   Clear
1:55 PM 62.6 °F - 12.2 °F 14% 30.18 in 10.0 mi West 5.8 mph - N/A   Clear
2:15 PM 62.6 °F - 14.0 °F 15% 30.18 in 10.0 mi West 8.1 mph - N/A   Clear
2:35 PM 62.6 °F - 14.0 °F 15% 30.18 in 10.0 mi West 5.8 mph - N/A   Clear
2:55 PM 62.6 °F - 14.0 °F 15% 30.18 in 10.0 mi West 5.8 mph - N/A   Clear
3:15 PM 60.8 °F - 14.0 °F 16% 30.19 in 10.0 mi West 5.8 mph - N/A   Clear
3:35 PM 59.0 °F - 14.0 °F 17% 30.19 in 10.0 mi West 5.8 mph - N/A   Clear
3:55 PM 59.0 °F - 14.0 °F 17% 30.20 in 10.0 mi West 5.8 mph - N/A   Clear
4:15 PM 59.0 °F - 14.0 °F 17% 30.20 in 10.0 mi West 3.5 mph - N/A   Clear
4:35 PM 57.2 °F - 12.2 °F 17% 30.20 in 10.0 mi Calm Calm - N/A   Clear
4:55 PM 55.4 °F - 14.0 °F 20% 30.20 in 10.0 mi Calm Calm - N/A   Clear
5:15 PM 53.6 °F - 17.6 °F 24% 30.20 in 10.0 mi Calm Calm - N/A   Clear
5:35 PM 53.6 °F - 14.0 °F 21% 30.21 in 10.0 mi Calm Calm - N/A   Clear
5:55 PM 51.8 °F - 17.6 °F 26% 30.21 in 10.0 mi Calm Calm - N/A   Clear
6:15 PM 51.8 °F - 19.4 °F 28% 30.22 in 10.0 mi Calm Calm - N/A   Clear
6:35 PM 51.8 °F - 23.0 °F 33% 30.22 in 10.0 mi Calm Calm - N/A   Clear
6:55 PM 51.8 °F - 23.0 °F 33% 30.23 in 10.0 mi Calm Calm - N/A   Clear
7:15 PM 53.6 °F - 21.2 °F 28% 30.23 in 10.0 mi Calm Calm - N/A   Clear
7:35 PM 53.6 °F - 23.0 °F 30% 30.23 in 10.0 mi Calm Calm - N/A   Clear
7:55 PM 53.6 °F - 23.0 °F 30% 30.23 in 10.0 mi Calm Calm - N/A   Clear
8:15 PM 53.6 °F - 23.0 °F 30% 30.24 in 10.0 mi ESE 3.5 mph - N/A   Clear
8:35 PM 53.6 °F - 23.0 °F 30% 30.24 in 10.0 mi Calm Calm - N/A   Clear
8:55 PM 50.0 °F - 24.8 °F 37% 30.24 in 10.0 mi East 4.6 mph - N/A   Clear
9:15 PM 51.8 °F - 23.0 °F 33% 30.25 in 10.0 mi East 4.6 mph - N/A   Clear
9:35 PM 51.8 °F - 23.0 °F 33% 30.25 in 10.0 mi East 3.5 mph - N/A   Clear
9:55 PM 50.0 °F - 19.4 °F 30% 30.26 in 10.0 mi Calm Calm - N/A   Clear
10:15 PM 51.8 °F - 17.6 °F 26% 30.26 in 10.0 mi Calm Calm - N/A   Clear
10:35 PM 50.0 °F - 15.8 °F 26% 30.26 in 10.0 mi Calm Calm - N/A   Clear
10:55 PM 53.6 °F - 15.8 °F 22% 30.26 in 10.0 mi ESE 4.6 mph - N/A   Clear
11:15 PM 53.6 °F - 17.6 °F 24% 30.26 in 10.0 mi Calm Calm - N/A   Clear
11:35 PM 53.6 °F - 19.4 °F 26% 30.26 in 10.0 mi East 5.8 mph - N/A   Clear
11:55 PM 53.6 °F - 19.4 °F 26% 30.26 in 10.0 mi East 5.8 mph - N/A   Clear